Location: Bad Salzschlirf
(50.3750°N, 9.3000°E)
Time: 07:24:51
(UTC+01:00)

ISS - Pass Details

Date: 10 December 2019
Orbit: 411 x 421 km, 51.6° (Epoch: 15 December)

Event Time Altitude Azimuth Distance (km) Brightness Sun altitude
Rises 18:23:47 0° 281° (W) 2,358 1.2 -18.7°
Reaches altitude 10° 18:26:40 10° 254° (WSW) 1,493 0.3 -19.2°
Maximum altitude 18:28:24 14° 222° (SW) 1,295 -0.5 -19.4°
Drops below altitude 10° 18:30:08 10° 191° (S) 1,491 -0.7 -19.7°
Enters shadow 18:32:55 - 164° (SSE) 2,316 0.0 -20.2°
